Year,Month,Day,Hour,Minute,Value (Times are PST for temperature in C)
2019,03,07,00,00,0.90
2019,03,07,00,03,0.70
2019,03,07,00,05,0.50
2019,03,07,00,06,0.40
2019,03,07,00,08,0.30
2019,03,07,00,09,0.30
2019,03,07,00,11,0.30
2019,03,07,00,12,0.30
2019,03,07,00,13,0.30
2019,03,07,00,14,0.30
2019,03,07,00,16,0.30
2019,03,07,00,17,0.30
2019,03,07,00,18,0.30
2019,03,07,00,20,0.20
2019,03,07,00,21,0.30
2019,03,07,00,22,0.20
2019,03,07,00,23,0.20
2019,03,07,00,25,0.20
2019,03,07,00,26,0.20
2019,03,07,00,28,0.20
2019,03,07,00,29,0.20
2019,03,07,00,30,0.20
2019,03,07,00,32,0.10
2019,03,07,00,33,0.10
2019,03,07,00,34,0.10
2019,03,07,00,36,0.10
2019,03,07,00,37,0.10
2019,03,07,00,38,0.10
2019,03,07,00,39,0.10
2019,03,07,00,41,0.10
2019,03,07,00,42,0.00
2019,03,07,00,43,0.00
2019,03,07,00,44,0.00
2019,03,07,00,46,-0.10
2019,03,07,00,47,-0.10
2019,03,07,00,49,-0.20
2019,03,07,00,51,-0.30
2019,03,07,00,53,-0.40
2019,03,07,00,55,-0.60
2019,03,07,00,56,-0.60
2019,03,07,00,58,-0.70
2019,03,07,01,00,-0.70
2019,03,07,01,02,-0.70
2019,03,07,01,03,-0.80
2019,03,07,01,04,-0.80
2019,03,07,01,06,-0.90
2019,03,07,01,07,-0.90
2019,03,07,01,08,-0.90
2019,03,07,01,09,-0.90
2019,03,07,01,11,-0.90
2019,03,07,01,13,-1.00
2019,03,07,01,14,-1.00
2019,03,07,01,15,-1.10
2019,03,07,01,16,-1.10
2019,03,07,01,17,-1.10
2019,03,07,01,18,-1.10
2019,03,07,01,19,-1.10
2019,03,07,01,21,-1.10
2019,03,07,01,22,-1.10
2019,03,07,01,23,-1.20
2019,03,07,01,24,-1.10
2019,03,07,01,25,-1.20
2019,03,07,01,26,-1.20
2019,03,07,01,28,-1.10
2019,03,07,01,30,-1.20
2019,03,07,01,31,-1.20
2019,03,07,01,33,-1.20
2019,03,07,01,35,-1.20
2019,03,07,01,37,-1.20
2019,03,07,01,38,-1.20
2019,03,07,01,39,-1.20
2019,03,07,01,41,-1.30
2019,03,07,01,42,-1.30
2019,03,07,01,43,-1.30
2019,03,07,01,45,-1.40
2019,03,07,01,46,-1.40
2019,03,07,01,48,-1.40
2019,03,07,01,49,-1.40
2019,03,07,01,51,-1.50
2019,03,07,01,52,-1.50
2019,03,07,01,53,-1.60
2019,03,07,01,54,-1.60
2019,03,07,01,55,-1.60
2019,03,07,01,57,-1.60
2019,03,07,01,59,-1.60
2019,03,07,02,00,-1.60
2019,03,07,02,02,-1.60
2019,03,07,02,03,-1.70
2019,03,07,02,04,-1.70
2019,03,07,02,05,-1.70
2019,03,07,02,06,-1.70
2019,03,07,02,08,-1.70
2019,03,07,02,10,-1.70
2019,03,07,02,11,-1.70
2019,03,07,02,13,-1.70
2019,03,07,02,14,-1.70
2019,03,07,02,16,-1.70
2019,03,07,02,18,-1.70
2019,03,07,02,19,-1.70
2019,03,07,02,20,-1.70
2019,03,07,02,21,-1.70
2019,03,07,02,22,-1.70
2019,03,07,02,23,-1.70
2019,03,07,02,24,-1.70
2019,03,07,02,25,-1.70
2019,03,07,02,26,-1.80
2019,03,07,02,27,-1.80
2019,03,07,02,28,-1.80
2019,03,07,02,30,-1.80
2019,03,07,02,31,-1.80
2019,03,07,02,32,-1.80
2019,03,07,02,33,-1.80
2019,03,07,02,35,-1.80
2019,03,07,02,36,-1.80
2019,03,07,02,38,-1.80
2019,03,07,02,39,-1.80
2019,03,07,02,40,-1.80
2019,03,07,02,41,-1.80
2019,03,07,02,43,-1.80
2019,03,07,02,46,-1.90
2019,03,07,02,47,-1.90
2019,03,07,02,48,-1.90
2019,03,07,02,50,-1.90
2019,03,07,02,51,-1.90
2019,03,07,02,52,-1.90
2019,03,07,02,54,-1.90
2019,03,07,02,55,-1.90
2019,03,07,02,58,-1.90
2019,03,07,03,00,-1.90
2019,03,07,03,01,-1.90
2019,03,07,03,02,-1.90
2019,03,07,03,03,-1.90
2019,03,07,03,04,-1.90
2019,03,07,03,06,-1.90
2019,03,07,03,07,-1.90
2019,03,07,03,08,-1.90
2019,03,07,03,09,-2.00
2019,03,07,03,10,-2.00
2019,03,07,03,11,-2.00
2019,03,07,03,13,-2.10
2019,03,07,03,14,-2.10
2019,03,07,03,15,-2.10
2019,03,07,03,16,-2.10
2019,03,07,03,17,-2.20
2019,03,07,03,18,-2.20
2019,03,07,03,19,-2.20
2019,03,07,03,20,-2.20
2019,03,07,03,22,-2.20
2019,03,07,03,24,-2.20
2019,03,07,03,26,-2.20
2019,03,07,03,28,-2.20
2019,03,07,03,29,-2.20
2019,03,07,03,30,-2.20
2019,03,07,03,32,-2.20
2019,03,07,03,33,-2.20
2019,03,07,03,34,-2.20
2019,03,07,03,35,-2.20
2019,03,07,03,37,-2.30
2019,03,07,03,38,-2.30
2019,03,07,03,39,-2.30
2019,03,07,03,40,-2.30
2019,03,07,03,43,-2.30
2019,03,07,03,45,-2.30
2019,03,07,03,46,-2.30
2019,03,07,03,47,-2.30
2019,03,07,03,48,-2.30
2019,03,07,03,49,-2.30
2019,03,07,03,50,-2.30
2019,03,07,03,51,-2.30
2019,03,07,03,52,-2.30
2019,03,07,03,53,-2.30
2019,03,07,03,54,-2.30
2019,03,07,03,55,-2.30
2019,03,07,03,58,-2.30
2019,03,07,03,59,-2.30
2019,03,07,04,00,-2.40
2019,03,07,04,01,-2.40
2019,03,07,04,02,-2.40
2019,03,07,04,03,-2.40
2019,03,07,04,06,-2.40
2019,03,07,04,07,-2.50
2019,03,07,04,08,-2.50
2019,03,07,04,10,-2.60
2019,03,07,04,11,-2.60
2019,03,07,04,13,-2.60
2019,03,07,04,15,-2.60
2019,03,07,04,17,-2.70
2019,03,07,04,18,-2.70
2019,03,07,04,19,-2.70
2019,03,07,04,21,-2.70
2019,03,07,04,23,-2.70
2019,03,07,04,24,-2.70
2019,03,07,04,25,-2.80
2019,03,07,04,27,-2.80
2019,03,07,04,29,-2.80
2019,03,07,04,30,-2.80
2019,03,07,04,32,-2.80
2019,03,07,04,33,-2.80
2019,03,07,04,35,-2.80
2019,03,07,04,36,-2.80
2019,03,07,04,37,-2.80
2019,03,07,04,38,-2.80
2019,03,07,04,40,-2.80
2019,03,07,04,41,-2.80
2019,03,07,04,43,-2.90
2019,03,07,04,44,-2.90
2019,03,07,04,45,-2.90
2019,03,07,04,46,-2.90
2019,03,07,04,47,-2.90
2019,03,07,04,48,-2.90
2019,03,07,04,49,-3.00
2019,03,07,04,50,-3.00
2019,03,07,04,51,-3.00
2019,03,07,04,52,-3.00
2019,03,07,04,54,-3.10
2019,03,07,04,55,-3.10
2019,03,07,04,56,-3.10
2019,03,07,04,57,-3.10
2019,03,07,04,59,-3.00
2019,03,07,05,00,-3.00
2019,03,07,05,01,-3.00
2019,03,07,05,02,-3.00
2019,03,07,05,03,-3.00
2019,03,07,05,04,-3.00
2019,03,07,05,05,-2.90
2019,03,07,05,07,-2.90
2019,03,07,05,08,-2.90
2019,03,07,05,10,-2.90
2019,03,07,05,11,-2.90
2019,03,07,05,12,-3.00
2019,03,07,05,13,-3.00
2019,03,07,05,15,-3.10
2019,03,07,05,17,-3.10
2019,03,07,05,18,-3.10
2019,03,07,05,19,-3.10
2019,03,07,05,21,-3.10
2019,03,07,05,22,-3.20
2019,03,07,05,23,-3.20
2019,03,07,05,24,-3.20
2019,03,07,05,26,-3.20
2019,03,07,05,27,-3.20
2019,03,07,05,28,-3.20
2019,03,07,05,29,-3.20
2019,03,07,05,30,-3.20
2019,03,07,05,31,-3.20
2019,03,07,05,32,-3.20
2019,03,07,05,34,-3.20
2019,03,07,05,35,-3.20
2019,03,07,05,36,-3.30
2019,03,07,05,37,-3.20
2019,03,07,05,38,-3.30
2019,03,07,05,40,-3.30
2019,03,07,05,41,-3.30
2019,03,07,05,42,-3.30
2019,03,07,05,44,-3.30
2019,03,07,05,45,-3.30
2019,03,07,05,46,-3.30
2019,03,07,05,47,-3.30
2019,03,07,05,48,-3.30
2019,03,07,05,49,-3.30
2019,03,07,05,51,-3.30
2019,03,07,05,52,-3.30
2019,03,07,05,53,-3.30
2019,03,07,05,55,-3.40
2019,03,07,05,56,-3.40
2019,03,07,05,57,-3.40
2019,03,07,05,59,-3.40
2019,03,07,06,01,-3.40
2019,03,07,06,03,-3.40
2019,03,07,06,05,-3.30
2019,03,07,06,06,-3.30
2019,03,07,06,07,-3.30
2019,03,07,06,08,-3.30
2019,03,07,06,09,-3.30
2019,03,07,06,10,-3.30
2019,03,07,06,11,-3.30
2019,03,07,06,13,-3.30
2019,03,07,06,14,-3.30
2019,03,07,06,15,-3.30
2019,03,07,06,16,-3.30
2019,03,07,06,18,-3.30
2019,03,07,06,19,-3.30
2019,03,07,06,20,-3.30
2019,03,07,06,22,-3.30
2019,03,07,06,23,-3.30
2019,03,07,06,24,-3.30
2019,03,07,06,26,-3.30
2019,03,07,06,27,-3.30
2019,03,07,06,28,-3.30
2019,03,07,06,29,-3.30
2019,03,07,06,31,-3.30
2019,03,07,06,32,-3.30
2019,03,07,06,33,-3.30
2019,03,07,06,34,-3.30
2019,03,07,06,35,-3.40
2019,03,07,06,37,-3.40
2019,03,07,06,38,-3.40
2019,03,07,06,39,-3.40
2019,03,07,06,40,-3.40
2019,03,07,06,42,-3.40
2019,03,07,06,43,-3.50
2019,03,07,06,44,-3.50
2019,03,07,06,45,-3.50
2019,03,07,06,47,-3.60
2019,03,07,06,48,-3.60
2019,03,07,06,49,-3.60
2019,03,07,06,51,-3.60
2019,03,07,06,52,-3.60
2019,03,07,06,53,-3.60
2019,03,07,06,55,-3.60
2019,03,07,06,56,-3.60
2019,03,07,06,57,-3.70
2019,03,07,06,58,-3.70
2019,03,07,06,59,-3.70
2019,03,07,07,01,-3.70
2019,03,07,07,02,-3.70
2019,03,07,07,03,-3.80
2019,03,07,07,04,-3.80
2019,03,07,07,05,-3.80
2019,03,07,07,06,-3.80
2019,03,07,07,07,-3.80
2019,03,07,07,08,-3.80
2019,03,07,07,10,-3.80
2019,03,07,07,11,-3.80
2019,03,07,07,12,-3.80
2019,03,07,07,14,-3.80
2019,03,07,07,16,-3.80
2019,03,07,07,17,-3.80
2019,03,07,07,18,-3.80
2019,03,07,07,20,-3.90
2019,03,07,07,22,-3.90
2019,03,07,07,23,-3.90
2019,03,07,07,25,-3.90
2019,03,07,07,27,-3.90
2019,03,07,07,29,-3.90
2019,03,07,07,30,-3.90
2019,03,07,07,31,-3.90
2019,03,07,07,33,-3.90
2019,03,07,07,35,-3.90
2019,03,07,07,37,-3.90
2019,03,07,07,39,-3.90
2019,03,07,07,40,-3.90
2019,03,07,07,42,-3.80
2019,03,07,07,43,-3.80
2019,03,07,07,44,-3.80
2019,03,07,07,45,-3.80
2019,03,07,07,47,-3.70
2019,03,07,07,48,-3.70
2019,03,07,07,50,-3.70
2019,03,07,07,51,-3.70
2019,03,07,07,52,-3.70
2019,03,07,07,53,-3.70
2019,03,07,07,54,-3.60
2019,03,07,07,55,-3.60
2019,03,07,07,56,-3.60
2019,03,07,07,57,-3.60
2019,03,07,07,58,-3.60
2019,03,07,07,59,-3.50
2019,03,07,08,00,-3.40
2019,03,07,08,01,-3.40
2019,03,07,08,03,-3.30
2019,03,07,08,04,-3.30
2019,03,07,08,05,-3.30
2019,03,07,08,07,-3.20
2019,03,07,08,08,-3.10
2019,03,07,08,09,-3.10
2019,03,07,08,10,-3.00
2019,03,07,08,11,-2.90
2019,03,07,08,12,-2.90
2019,03,07,08,14,-2.80
2019,03,07,08,16,-2.70
2019,03,07,08,17,-2.60
2019,03,07,08,19,-2.50
2019,03,07,08,20,-2.40
2019,03,07,08,21,-2.40
2019,03,07,08,22,-2.40
2019,03,07,08,23,-2.30
2019,03,07,08,24,-2.30
2019,03,07,08,25,-2.30
2019,03,07,08,26,-2.30
2019,03,07,08,27,-2.20
2019,03,07,08,28,-2.20
2019,03,07,08,30,-2.10
2019,03,07,08,31,-2.10
2019,03,07,08,33,-1.90
2019,03,07,08,35,-1.80
2019,03,07,08,37,-1.70
2019,03,07,08,39,-1.60
2019,03,07,08,40,-1.40
2019,03,07,08,41,-1.30
2019,03,07,08,42,-1.20
2019,03,07,08,44,-0.90
2019,03,07,08,46,-0.60
2019,03,07,08,47,-0.30
2019,03,07,08,48,-0.20
2019,03,07,08,49,-0.10
2019,03,07,08,50,0.10
2019,03,07,08,51,0.20
2019,03,07,08,52,0.30
2019,03,07,08,53,0.40
2019,03,07,08,54,0.40
2019,03,07,08,55,0.50
2019,03,07,08,57,0.70
2019,03,07,08,58,0.70
2019,03,07,09,00,0.80
2019,03,07,09,01,0.90
2019,03,07,09,02,1.00
2019,03,07,09,03,1.10
2019,03,07,09,04,1.10
2019,03,07,09,05,1.20
2019,03,07,09,06,1.20
2019,03,07,09,08,1.30
2019,03,07,09,09,1.30
2019,03,07,09,11,1.40
2019,03,07,09,13,1.50
2019,03,07,09,14,1.50
2019,03,07,09,16,1.50
2019,03,07,09,18,1.50
2019,03,07,09,19,1.50
2019,03,07,09,20,1.50
2019,03,07,09,21,1.50
2019,03,07,09,22,1.60
2019,03,07,09,23,1.60
2019,03,07,09,24,1.60
2019,03,07,09,25,1.70
2019,03,07,09,27,1.70
2019,03,07,09,29,1.80
2019,03,07,09,30,1.80
2019,03,07,09,31,1.90
2019,03,07,09,32,1.90
2019,03,07,09,34,2.00
2019,03,07,09,35,2.10
2019,03,07,09,36,2.10
2019,03,07,09,37,2.20
2019,03,07,09,38,2.20
2019,03,07,09,39,2.20
2019,03,07,09,40,2.30
2019,03,07,09,41,2.40
2019,03,07,09,42,2.40
2019,03,07,09,43,2.50
2019,03,07,09,44,2.60
2019,03,07,09,45,2.70
2019,03,07,09,46,2.70
2019,03,07,09,48,2.80
2019,03,07,09,49,2.80
2019,03,07,09,51,2.80
2019,03,07,09,52,2.80
2019,03,07,09,53,2.90
2019,03,07,09,54,2.90
2019,03,07,09,55,2.90
2019,03,07,09,57,2.80
2019,03,07,09,59,2.80
2019,03,07,10,00,2.80
2019,03,07,10,02,2.70
2019,03,07,10,03,2.70
2019,03,07,10,04,2.70
2019,03,07,10,06,2.60
2019,03,07,10,07,2.60
2019,03,07,10,08,2.70
2019,03,07,10,10,2.80
2019,03,07,10,12,2.80
2019,03,07,10,13,2.80
2019,03,07,10,14,2.80
2019,03,07,10,15,2.90
2019,03,07,10,16,2.90
2019,03,07,10,17,3.00
2019,03,07,10,18,3.10
2019,03,07,10,19,3.10
2019,03,07,10,21,3.20
2019,03,07,10,22,3.30
2019,03,07,10,23,3.30
2019,03,07,10,24,3.40
2019,03,07,10,25,3.50
2019,03,07,10,27,3.70
2019,03,07,10,28,3.80
2019,03,07,10,29,3.90
2019,03,07,10,30,3.90
2019,03,07,10,32,4.10
2019,03,07,10,33,4.10
2019,03,07,10,34,4.10
2019,03,07,10,35,4.10
2019,03,07,10,37,4.10
2019,03,07,10,38,4.10
2019,03,07,10,39,4.10
2019,03,07,10,40,4.10
2019,03,07,10,41,4.20
2019,03,07,10,43,4.10
2019,03,07,10,45,4.00
2019,03,07,10,47,3.90
2019,03,07,10,48,3.80
2019,03,07,10,49,3.80
2019,03,07,10,50,3.70
2019,03,07,10,52,3.70
2019,03,07,10,54,3.60
2019,03,07,10,56,3.60
2019,03,07,10,57,3.50
2019,03,07,10,58,3.50
2019,03,07,11,00,3.40
2019,03,07,11,01,3.40
2019,03,07,11,02,3.40
2019,03,07,11,03,3.40
2019,03,07,11,04,3.40
2019,03,07,11,06,3.40
2019,03,07,11,07,3.40
2019,03,07,11,09,3.40
2019,03,07,11,10,3.40
2019,03,07,11,11,3.40
2019,03,07,11,12,3.40
2019,03,07,11,13,3.50
2019,03,07,11,14,3.50
2019,03,07,11,15,3.50
2019,03,07,11,16,3.60
2019,03,07,11,17,3.60
2019,03,07,11,18,3.70
2019,03,07,11,19,3.70
2019,03,07,11,20,3.80
2019,03,07,11,21,3.80
2019,03,07,11,22,3.90
2019,03,07,11,24,3.90
2019,03,07,11,25,4.00
2019,03,07,11,26,4.10
2019,03,07,11,28,4.20
2019,03,07,11,29,4.20
2019,03,07,11,30,4.30
2019,03,07,11,31,4.40
2019,03,07,11,32,4.50
2019,03,07,11,34,4.60
2019,03,07,11,35,4.70
2019,03,07,11,36,4.70
2019,03,07,11,38,4.80
2019,03,07,11,39,4.90
2019,03,07,11,40,4.90
2019,03,07,11,42,5.10
2019,03,07,11,43,5.10
2019,03,07,11,44,5.20
2019,03,07,11,46,5.30
2019,03,07,11,47,5.30
2019,03,07,11,49,5.40
2019,03,07,11,51,5.50
2019,03,07,11,52,5.60
2019,03,07,11,53,5.70
2019,03,07,11,54,5.80
2019,03,07,11,55,5.90
2019,03,07,11,57,6.10
2019,03,07,11,58,6.20
2019,03,07,12,00,6.20
2019,03,07,12,01,6.20
2019,03,07,12,03,6.30
2019,03,07,12,04,6.30
2019,03,07,12,06,6.30
2019,03,07,12,08,6.40
2019,03,07,12,09,6.50
2019,03,07,12,10,6.60
2019,03,07,12,12,6.70
2019,03,07,12,14,6.70
2019,03,07,12,15,6.70
2019,03,07,12,17,6.70
2019,03,07,12,18,6.70
2019,03,07,12,20,6.70
2019,03,07,12,22,6.70
2019,03,07,12,23,6.80
2019,03,07,12,24,6.80
2019,03,07,12,25,6.80
2019,03,07,12,26,6.80
2019,03,07,12,28,6.80
2019,03,07,12,30,6.90
2019,03,07,12,32,6.90
2019,03,07,12,34,7.00
2019,03,07,12,36,7.10
2019,03,07,12,37,7.20
2019,03,07,12,38,7.30
2019,03,07,12,39,7.40
2019,03,07,12,40,7.50
2019,03,07,12,41,7.60
2019,03,07,12,42,7.70
2019,03,07,12,44,7.80
2019,03,07,12,46,7.80
2019,03,07,12,47,7.80
2019,03,07,12,49,7.70
2019,03,07,12,50,7.70
2019,03,07,12,51,7.70
2019,03,07,12,53,7.60
2019,03,07,12,55,7.40
2019,03,07,12,56,7.40
2019,03,07,12,58,7.40
2019,03,07,13,01,7.30
2019,03,07,13,03,7.30
2019,03,07,13,04,7.40
2019,03,07,13,06,7.40
2019,03,07,13,07,7.30
2019,03,07,13,08,7.30
2019,03,07,13,09,7.30
2019,03,07,13,10,7.30
2019,03,07,13,11,7.20
2019,03,07,13,12,7.20
2019,03,07,13,14,7.20
2019,03,07,13,16,7.20
2019,03,07,13,17,7.30
2019,03,07,13,18,7.30
2019,03,07,13,19,7.30
2019,03,07,13,21,7.30
2019,03,07,13,22,7.30
2019,03,07,13,24,7.30
2019,03,07,13,26,7.30
2019,03,07,13,28,7.30
2019,03,07,13,29,7.30
2019,03,07,13,30,7.30
2019,03,07,13,31,7.30
2019,03,07,13,33,7.30
2019,03,07,13,35,7.30
2019,03,07,13,36,7.30
2019,03,07,13,37,7.30
2019,03,07,13,39,7.30
2019,03,07,13,41,7.40
2019,03,07,13,43,7.50
2019,03,07,13,45,7.60
2019,03,07,13,47,7.70
2019,03,07,13,48,7.60
2019,03,07,13,49,7.60
2019,03,07,13,50,7.60
2019,03,07,13,51,7.60
2019,03,07,13,52,7.50
2019,03,07,13,55,7.40
2019,03,07,13,57,7.40
2019,03,07,13,59,7.40
2019,03,07,14,00,7.30
2019,03,07,14,01,7.30
2019,03,07,14,02,7.30
2019,03,07,14,03,7.30
2019,03,07,14,04,7.30
2019,03,07,14,06,7.30
2019,03,07,14,07,7.20
2019,03,07,14,09,7.20
2019,03,07,14,11,7.20
2019,03,07,14,13,7.30
2019,03,07,14,14,7.30
2019,03,07,14,16,7.40
2019,03,07,14,17,7.40
2019,03,07,14,20,7.50
2019,03,07,14,21,7.60
2019,03,07,14,22,7.60
2019,03,07,14,23,7.60
2019,03,07,14,25,7.50
2019,03,07,14,27,7.40
2019,03,07,14,28,7.40
2019,03,07,14,30,7.40
2019,03,07,14,31,7.40
2019,03,07,14,32,7.40
2019,03,07,14,33,7.40
2019,03,07,14,34,7.50
2019,03,07,14,37,7.60
2019,03,07,14,38,7.70
2019,03,07,14,40,7.80
2019,03,07,14,41,7.80
2019,03,07,14,42,7.80
2019,03,07,14,43,7.80
2019,03,07,14,44,7.90
2019,03,07,14,45,7.80
2019,03,07,14,46,7.80
2019,03,07,14,47,7.80
2019,03,07,14,48,7.80
2019,03,07,14,49,7.80
2019,03,07,14,50,7.80
2019,03,07,14,52,7.80
2019,03,07,14,53,7.70
2019,03,07,14,54,7.70
2019,03,07,14,55,7.70
2019,03,07,14,56,7.80
2019,03,07,14,58,7.80
2019,03,07,15,00,7.90
2019,03,07,15,02,8.10
2019,03,07,15,03,8.10
2019,03,07,15,04,8.10
2019,03,07,15,06,8.10
2019,03,07,15,07,7.90
2019,03,07,15,08,7.80
2019,03,07,15,10,7.60
2019,03,07,15,11,7.40
2019,03,07,15,13,7.30
2019,03,07,15,14,7.20
2019,03,07,15,15,7.20
2019,03,07,15,16,7.10
2019,03,07,15,17,7.10
2019,03,07,15,19,6.90
2019,03,07,15,21,6.80
2019,03,07,15,22,6.80
2019,03,07,15,23,6.70
2019,03,07,15,25,6.60
2019,03,07,15,26,6.60
2019,03,07,15,27,6.60
2019,03,07,15,29,6.60
2019,03,07,15,30,6.50
2019,03,07,15,32,6.50
2019,03,07,15,34,6.50
2019,03,07,15,35,6.60
2019,03,07,15,36,6.60
2019,03,07,15,37,6.60
2019,03,07,15,38,6.60
2019,03,07,15,40,6.70
2019,03,07,15,41,6.70
2019,03,07,15,43,6.70
2019,03,07,15,44,6.80
2019,03,07,15,46,6.90
2019,03,07,15,47,6.90
2019,03,07,15,48,7.00
2019,03,07,15,49,7.10
2019,03,07,15,50,7.10
2019,03,07,15,51,7.10
2019,03,07,15,53,7.10
2019,03,07,15,54,7.10
2019,03,07,15,55,7.10
2019,03,07,15,56,7.10
2019,03,07,15,57,7.00
2019,03,07,15,59,7.00
2019,03,07,16,00,6.90
2019,03,07,16,02,6.90
2019,03,07,16,04,6.70
2019,03,07,16,05,6.60
2019,03,07,16,06,6.50
2019,03,07,16,08,6.50
2019,03,07,16,09,6.40
2019,03,07,16,10,6.40
2019,03,07,16,11,6.30
2019,03,07,16,12,6.20
2019,03,07,16,13,6.20
2019,03,07,16,14,6.20
2019,03,07,16,15,6.10
2019,03,07,16,17,6.10
2019,03,07,16,18,6.10
2019,03,07,16,19,6.00
2019,03,07,16,20,6.00
2019,03,07,16,21,6.00
2019,03,07,16,23,5.90
2019,03,07,16,24,5.90
2019,03,07,16,26,5.90
2019,03,07,16,27,5.90
2019,03,07,16,28,5.90
2019,03,07,16,30,5.80
2019,03,07,16,31,5.80
2019,03,07,16,32,5.80
2019,03,07,16,33,5.80
2019,03,07,16,35,5.80
2019,03,07,16,36,5.70
2019,03,07,16,37,5.70
2019,03,07,16,38,5.70
2019,03,07,16,40,5.70
2019,03,07,16,41,5.70
2019,03,07,16,43,5.60
2019,03,07,16,44,5.60
2019,03,07,16,45,5.60
2019,03,07,16,47,5.60
2019,03,07,16,48,5.60
2019,03,07,16,49,5.60
2019,03,07,16,51,5.60
2019,03,07,16,52,5.60
2019,03,07,16,53,5.60
2019,03,07,16,54,5.60
2019,03,07,16,55,5.60
2019,03,07,16,56,5.50
2019,03,07,16,58,5.50
2019,03,07,17,00,5.50
2019,03,07,17,02,5.50
2019,03,07,17,03,5.50
2019,03,07,17,04,5.50
2019,03,07,17,06,5.40
2019,03,07,17,07,5.40
2019,03,07,17,09,5.40
2019,03,07,17,10,5.40
2019,03,07,17,11,5.30
2019,03,07,17,13,5.30
2019,03,07,17,15,5.30
2019,03,07,17,16,5.30
2019,03,07,17,17,5.30
2019,03,07,17,18,5.20
2019,03,07,17,20,5.20
2019,03,07,17,21,5.20
2019,03,07,17,22,5.20
2019,03,07,17,23,5.20
2019,03,07,17,25,5.20
2019,03,07,17,26,5.20
2019,03,07,17,27,5.20
2019,03,07,17,28,5.10
2019,03,07,17,29,5.10
2019,03,07,17,31,5.10
2019,03,07,17,33,5.10
2019,03,07,17,34,5.10
2019,03,07,17,35,5.10
2019,03,07,17,37,5.10
2019,03,07,17,38,5.00
2019,03,07,17,39,5.00
2019,03,07,17,40,4.90
2019,03,07,17,41,4.90
2019,03,07,17,42,4.90
2019,03,07,17,44,4.90
2019,03,07,17,45,4.90
2019,03,07,17,46,4.80
2019,03,07,17,47,4.80
2019,03,07,17,49,4.80
2019,03,07,17,50,4.80
2019,03,07,17,52,4.80
2019,03,07,17,54,4.70
2019,03,07,17,55,4.70
2019,03,07,17,56,4.70
2019,03,07,17,57,4.70
2019,03,07,17,58,4.60
2019,03,07,17,59,4.60
2019,03,07,18,01,4.60
2019,03,07,18,02,4.60
2019,03,07,18,03,4.60
2019,03,07,18,04,4.60
2019,03,07,18,06,4.60
2019,03,07,18,07,4.50
2019,03,07,18,08,4.50
2019,03,07,18,09,4.50
2019,03,07,18,10,4.50
2019,03,07,18,11,4.40
2019,03,07,18,12,4.40
2019,03,07,18,14,4.40
2019,03,07,18,15,4.40
2019,03,07,18,17,4.40
2019,03,07,18,18,4.40
2019,03,07,18,19,4.30
2019,03,07,18,20,4.30
2019,03,07,18,21,4.30
2019,03,07,18,23,4.30
2019,03,07,18,24,4.30
2019,03,07,18,25,4.30
2019,03,07,18,26,4.30
2019,03,07,18,28,4.30
2019,03,07,18,30,4.20
2019,03,07,18,31,4.20
2019,03,07,18,33,4.20
2019,03,07,18,34,4.10
2019,03,07,18,35,4.10
2019,03,07,18,37,4.00
2019,03,07,18,38,3.90
2019,03,07,18,39,3.90
2019,03,07,18,40,3.90
2019,03,07,18,41,3.80
2019,03,07,18,42,3.80
2019,03,07,18,44,3.80
2019,03,07,18,46,3.80
2019,03,07,18,47,3.80
2019,03,07,18,48,3.70
2019,03,07,18,49,3.80
2019,03,07,18,50,3.70
2019,03,07,18,52,3.70
2019,03,07,18,53,3.70
2019,03,07,18,54,3.70
2019,03,07,18,55,3.70
2019,03,07,18,56,3.70
2019,03,07,18,57,3.60
2019,03,07,18,58,3.60
2019,03,07,18,59,3.60
2019,03,07,19,00,3.50
2019,03,07,19,01,3.40
2019,03,07,19,02,3.40
2019,03,07,19,03,3.30
2019,03,07,19,04,3.30
2019,03,07,19,05,3.20
2019,03,07,19,06,3.20
2019,03,07,19,07,3.20
2019,03,07,19,08,3.10
2019,03,07,19,09,3.10
2019,03,07,19,11,3.10
2019,03,07,19,12,3.00
2019,03,07,19,13,2.90
2019,03,07,19,14,2.90
2019,03,07,19,16,2.80
2019,03,07,19,17,2.80
2019,03,07,19,18,2.70
2019,03,07,19,19,2.70
2019,03,07,19,20,2.70
2019,03,07,19,22,2.60
2019,03,07,19,23,2.60
2019,03,07,19,24,2.50
2019,03,07,19,25,2.50
2019,03,07,19,27,2.40
2019,03,07,19,28,2.40
2019,03,07,19,30,2.30
2019,03,07,19,31,2.30
2019,03,07,19,32,2.30
2019,03,07,19,33,2.30
2019,03,07,19,34,2.20
2019,03,07,19,35,2.20
2019,03,07,19,36,2.20
2019,03,07,19,37,2.20
2019,03,07,19,38,2.20
2019,03,07,19,39,2.20
2019,03,07,19,40,2.20
2019,03,07,19,41,2.20
2019,03,07,19,42,2.10
2019,03,07,19,43,2.10
2019,03,07,19,44,2.10
2019,03,07,19,45,2.10
2019,03,07,19,47,2.10
2019,03,07,19,48,2.00
2019,03,07,19,49,2.00
2019,03,07,19,50,2.00
2019,03,07,19,51,2.00
2019,03,07,19,52,1.90
2019,03,07,19,54,1.90
2019,03,07,19,55,1.90
2019,03,07,19,56,1.90
2019,03,07,19,57,1.90
2019,03,07,19,59,1.80
2019,03,07,20,00,1.80
2019,03,07,20,02,1.80
2019,03,07,20,03,1.70
2019,03,07,20,04,1.70
2019,03,07,20,05,1.70
2019,03,07,20,06,1.60
2019,03,07,20,07,1.60
2019,03,07,20,08,1.50
2019,03,07,20,09,1.50
2019,03,07,20,10,1.40
2019,03,07,20,11,1.40
2019,03,07,20,12,1.40
2019,03,07,20,13,1.30
2019,03,07,20,14,1.30
2019,03,07,20,15,1.30
2019,03,07,20,16,1.30
2019,03,07,20,17,1.30
2019,03,07,20,18,1.20
2019,03,07,20,19,1.20
2019,03,07,20,20,1.20
2019,03,07,20,21,1.20
2019,03,07,20,22,1.20
2019,03,07,20,23,1.20
2019,03,07,20,25,1.10
2019,03,07,20,26,1.10
2019,03,07,20,27,1.00
2019,03,07,20,28,0.90
2019,03,07,20,29,0.90
2019,03,07,20,30,0.90
2019,03,07,20,31,0.80
2019,03,07,20,32,0.80
2019,03,07,20,33,0.80
2019,03,07,20,34,0.80
2019,03,07,20,35,0.70
2019,03,07,20,36,0.70
2019,03,07,20,37,0.70
2019,03,07,20,38,0.70
2019,03,07,20,39,0.60
2019,03,07,20,40,0.60
2019,03,07,20,41,0.60
2019,03,07,20,42,0.60
2019,03,07,20,43,0.50
2019,03,07,20,44,0.50
2019,03,07,20,45,0.50
2019,03,07,20,46,0.40
2019,03,07,20,47,0.40
2019,03,07,20,49,0.40
2019,03,07,20,50,0.40
2019,03,07,20,51,0.40
2019,03,07,20,52,0.40
2019,03,07,20,53,0.40
2019,03,07,20,54,0.40
2019,03,07,20,55,0.40
2019,03,07,20,56,0.40
2019,03,07,20,57,0.40
2019,03,07,20,58,0.40
2019,03,07,20,59,0.30
2019,03,07,21,00,0.30
2019,03,07,21,01,0.30
2019,03,07,21,02,0.30
2019,03,07,21,03,0.30
2019,03,07,21,04,0.30
2019,03,07,21,05,0.30
2019,03,07,21,06,0.20
2019,03,07,21,08,0.20
2019,03,07,21,09,0.20
2019,03,07,21,10,0.20
2019,03,07,21,11,0.20
2019,03,07,21,12,0.10
2019,03,07,21,13,0.10
2019,03,07,21,14,0.10
2019,03,07,21,15,0.10
2019,03,07,21,16,0.00
2019,03,07,21,17,0.00
2019,03,07,21,18,0.00
2019,03,07,21,19,0.00
2019,03,07,21,20,-0.10
2019,03,07,21,21,-0.10
2019,03,07,21,22,-0.10
2019,03,07,21,23,-0.10
2019,03,07,21,24,-0.10
2019,03,07,21,25,-0.10
2019,03,07,21,26,-0.10
2019,03,07,21,27,-0.20
2019,03,07,21,28,-0.20
2019,03,07,21,29,-0.20
2019,03,07,21,30,-0.20
2019,03,07,21,31,-0.20
2019,03,07,21,32,-0.20
2019,03,07,21,33,-0.30
2019,03,07,21,34,-0.30
2019,03,07,21,35,-0.30
2019,03,07,21,36,-0.30
2019,03,07,21,37,-0.30
2019,03,07,21,38,-0.30
2019,03,07,21,39,-0.30
2019,03,07,21,40,-0.30
2019,03,07,21,41,-0.40
2019,03,07,21,42,-0.30
2019,03,07,21,43,-0.40
2019,03,07,21,44,-0.40
2019,03,07,21,45,-0.40
2019,03,07,21,46,-0.40
2019,03,07,21,47,-0.40
2019,03,07,21,48,-0.40
2019,03,07,21,49,-0.40
2019,03,07,21,50,-0.50
2019,03,07,21,51,-0.50
2019,03,07,21,52,-0.50
2019,03,07,21,53,-0.50
2019,03,07,21,54,-0.50
2019,03,07,21,55,-0.50
2019,03,07,21,56,-0.50
2019,03,07,21,57,-0.60
2019,03,07,21,58,-0.60
2019,03,07,22,00,-0.60
2019,03,07,22,01,-0.60
2019,03,07,22,02,-0.60
2019,03,07,22,03,-0.60
2019,03,07,22,04,-0.60
2019,03,07,22,05,-0.60
2019,03,07,22,07,-0.60
2019,03,07,22,09,-0.70
2019,03,07,22,10,-0.70
2019,03,07,22,12,-0.70
2019,03,07,22,13,-0.70
2019,03,07,22,14,-0.70
2019,03,07,22,15,-0.70
2019,03,07,22,16,-0.80
2019,03,07,22,17,-0.80
2019,03,07,22,18,-0.80
2019,03,07,22,19,-0.80
2019,03,07,22,20,-0.80
2019,03,07,22,21,-0.80
2019,03,07,22,22,-0.80
2019,03,07,22,23,-0.90
2019,03,07,22,24,-0.80
2019,03,07,22,25,-0.90
2019,03,07,22,26,-0.90
2019,03,07,22,27,-0.90
2019,03,07,22,28,-0.90
2019,03,07,22,29,-0.90
2019,03,07,22,30,-0.90
2019,03,07,22,31,-0.90
2019,03,07,22,32,-0.90
2019,03,07,22,33,-1.00
2019,03,07,22,34,-1.00
2019,03,07,22,35,-1.00
2019,03,07,22,36,-1.00
2019,03,07,22,37,-1.10
2019,03,07,22,38,-1.00
2019,03,07,22,39,-1.10
2019,03,07,22,40,-1.10
2019,03,07,22,41,-1.00
2019,03,07,22,42,-1.00
2019,03,07,22,43,-1.10
2019,03,07,22,44,-1.00
2019,03,07,22,46,-1.10
2019,03,07,22,48,-1.10
2019,03,07,22,49,-1.10
2019,03,07,22,51,-1.10